Content
SEND FEEDBACK

Daily
Averages
Monthly
Summary
United States of America

GRIFFIN, GEORGIA


Home > North America > United States > Georgia
Elevation: 98 feet     Latitude: 33 15N     Longitude: 084 16W

WEATHER
 
SELECT A DAY
Number of Records: 199,455;   Date Range: 1/31/96 - 7/29/14
 
SHARE

PRINT THIS DATA

[ ← Previous Day ]
WEATHER ALMANAC - FEBRUARY 5, 2013
[ Next Day → ]
[ °C ]   °F
Weather ElementAverageHighLow
Temperature48.7 °F62.1 °F (2:53 pm)30.9 °F (5:53 am)
Dewpoint41.8 °F50 °F (6:53 pm)30 °F (4:53 am)
Humidity78.6 %96 % (5:53 am)60 % (1:53 pm)
Barometer30.03 in30.06 in (8:53 am)29.99 in (4:53 am)
Wind Speed1.9 mph10.4 mph (12:53 pm)
Wind Gust16.1 mph (11:53 am)
Weather ElementAverage
Visibility7.7 mi
Wind DirectionE (92.6 °)

Weather ElementTotal
Precipitation---
Heating Degree Days18.5 (Base 65)
Averaged from 23 records on February 5, 2013
WEATHER CONDITIONS BREAKOUT
WIND DIRECTION BREAKOUT
WEATHER BY HOUR - FEBRUARY 5, 2013
[ °C ]   °F
Local TimeTemperatureDewpointHumidityBarometerVisibilityWind DirectionWind SpeedGust SpeedPrecipitationEventsConditions
1:53 AM37.0 °F33.1 °F86 %30.02 in8.0 miCalmScattered Clouds
2:53 AM35.1 °F32.0 °F89 %30.01 in8.0 miCalmScattered Clouds
3:53 AM34.0 °F30.9 °F89 %30.01 in8.0 miCalmPartly Cloudy
4:53 AM32.0 °F30.0 °F92 %29.99 in7.0 miCalmClear
5:53 AM30.9 °F30.0 °F96 %30.01 in7.0 miCalmPartly Cloudy
6:53 AM34.0 °F32.0 °F92 %30.03 in7.0 miCalmOvercast
7:53 AM36.0 °F33.1 °F89 %30.04 in7.0 miCalmOvercast
8:53 AM41.0 °F36.0 °F82 %30.06 in7.0 miCalmOvercast
9:53 AM50.0 °F39.9 °F68 %30.06 in8.0 miCalmOvercast
10:53 AM57.9 °F45.0 °F62 %30.06 in9.0 miWest (280°)6.9 mphOvercast
11:53 AM59.0 °F46.9 °F64 %30.05 in9.0 miWNW (300°)8.1 mph16.1 mphMostly Cloudy
12:53 PM60.1 °F46.9 °F62 %30.04 in9.0 miNW (320°)10.4 mphOvercast
1:53 PM61.0 °F46.9 °F60 %30.01 in8.0 miWNW (290°)4.6 mphOvercast
2:53 PM62.1 °F48.0 °F60 %30.00 in9.0 miNNW (340°)4.6 mphOvercast
3:53 PM62.1 °F48.0 °F60 %30.00 in9.0 miNW (320°)4.6 mph0.00 inOvercast
4:53 PM62.1 °F48.9 °F62 %30.00 in9.0 miWest (280°)3.5 mph0.00 inMostly Cloudy
5:53 PM61.0 °F48.9 °F64 %29.99 in10.0 miCalmOvercast
6:53 PM57.0 °F50.0 °F77 %30.01 in9.0 miCalm0.00 inRainLight Rain
7:53 PM54.0 °F50.0 °F86 %30.01 in9.0 miCalm0.00 inMostly Cloudy
8:53 PM51.1 °F48.0 °F89 %30.04 in7.0 miCalmMostly Cloudy
9:53 PM48.9 °F46.9 °F93 %30.06 in5.0 miCalmMostly Cloudy
10:53 PM48.0 °F46.0 °F93 %30.06 in4.0 miCalmMostly Cloudy
11:53 PM46.9 °F45.0 °F93 %30.05 in5.0 miCalmMostly Cloudy
Hourly data recorded from KFFC, located miles away from Griffin, Georgia







STORIES FROM OUR PARTNERS